Puerto Vallarta, Mexico

12:01 AM CDT on April 25, 2018 (GMT -0500)
Lic Gustavo Diaz Ordaz International

Weather History for MMPR - April, 2018

Change the Weather History Date:

Tuesday, April 17, 2018

  Actual Average Record
Temperature  
Mean Temperature 72 °F -  
Max Temperature 82 °F 82 °F 84 °F (2002)
Min Temperature 62 °F 66 °F 59 °F (1999)
Cooling Degree Days 7    
Growing Degree Days 22 (Base 50)    
Moisture  
Dew Point 63 °F    
Average Humidity 71    
Maximum Humidity 100    
Minimum Humidity 48    
Precipitation  
Precipitation 0.00 in - - ()
Sea Level Pressure  
Sea Level Pressure 29.93 in    
Wind  
Wind Speed 5 mph ()    
Max Wind Speed 18 mph    
Max Gust Speed -    
Visibility 13.8 miles    
Events      
Averages and records for this station are not official NWS values.
T = Trace of Precipitation, MM = Missing Value Source: Averaged Metar Reports

Daily Weather History Graph

Daily Weather History Graph

Search for Another Location

Airport or City:

Astronomy

Apr. 17, 2018 Rise Set
Actual Time 7:40 AM CDT 8:20 PM CDT
Civil Twilight 7:18 AM CDT 8:43 PM CDT
Nautical Twilight 6:51 AM CDT 9:09 PM CDT
Astronomical Twilight 6:24 AM CDT 9:36 PM CDT
Moon 9:04 AM CDT (4/17) 10:12 PM CDT (4/17)
Length of Visible Light 13h 25m
Length of Day
12h 39m
Waxing Crescent, 3% of the Moon is Illuminated
Apr 17
Waxing Crescent
Apr 22
First Quarter
Apr 29
Full
May 7
Last Quarter
May 15
New

Hourly Weather History & Observations

Time (CDT) Temp. Heat Index Dew Point Humidity Pressure Visibility Wind Dir Wind Speed Gust Speed Precip Events Conditions
12:45 AM 69.8 °F - 69.8 °F 100% 30.00 in 12.0 mi NE 3.5 mph - N/A   Partly Cloudy
1:41 AM 68.0 °F - 68.0 °F 100% 29.99 in 12.0 mi NE 2.3 mph - N/A   Clear
2:44 AM 68.0 °F - 64.4 °F 88% 29.96 in 12.0 mi NNE 4.6 mph - N/A   Clear
3:49 AM 66.2 °F - 60.8 °F 83% 29.94 in 12.0 mi NE 3.5 mph - N/A   Clear
4:43 AM 64.4 °F - 62.6 °F 94% 29.93 in 12.0 mi Calm Calm - N/A   Clear
5:43 AM 62.6 °F - 62.6 °F 100% 29.93 in 12.0 mi Calm Calm - N/A   Clear
7:47 AM 62.6 °F - 62.6 °F 100% 29.95 in 15.0 mi ENE 3.5 mph - N/A   Scattered Clouds
8:55 AM 68.0 °F - 60.8 °F 78% 29.97 in 15.0 mi North 3.5 mph - N/A   Scattered Clouds
9:49 AM 73.4 °F - 60.8 °F 65% 29.99 in 15.0 mi Calm Calm - N/A   Mostly Cloudy
10:50 AM 78.8 °F - 62.6 °F 57% 29.98 in 15.0 mi SSW 4.6 mph - N/A   Mostly Cloudy
11:48 AM 82.4 °F 83.4 °F 62.6 °F 51% 29.96 in 15.0 mi SSW 6.9 mph - N/A   Mostly Cloudy
12:55 PM 80.6 °F 81.5 °F 60.8 °F 51% 29.94 in 15.0 mi SSW 11.5 mph - N/A   Mostly Cloudy
1:57 PM 80.6 °F 81.8 °F 62.6 °F 54% 29.92 in 15.0 mi SW 11.5 mph - N/A   Mostly Cloudy
2:49 PM 80.6 °F 82.3 °F 64.4 °F 58% 29.91 in 15.0 mi SSW 16.1 mph - N/A   Mostly Cloudy
3:51 PM 80.6 °F 83.2 °F 68.0 °F 65% 29.89 in 15.0 mi SSW 18.4 mph - N/A   Mostly Cloudy
4:46 PM 80.6 °F 82.7 °F 66.2 °F 61% 29.87 in 15.0 mi SSW 16.1 mph - N/A   Scattered Clouds
5:48 PM 78.8 °F - 68.0 °F 69% 29.86 in 15.0 mi South 15.0 mph - N/A   Clear
6:45 PM 80.6 °F 83.2 °F 68.0 °F 65% 29.87 in 15.0 mi SSW 13.8 mph - N/A   Clear
8:00 PM 80.6 °F 81.1 °F 59.0 °F 48% 29.88 in 15.0 mi SSW 10.4 mph - N/A   Clear
8:45 PM 77.0 °F - 59.0 °F 54% 29.90 in 15.0 mi Calm Calm - N/A   Unknown
9:40 PM 73.4 °F - 60.8 °F 65% 29.91 in 12.0 mi NE 4.6 mph - N/A   Clear
10:46 PM 71.6 °F - 57.2 °F 60% 29.93 in 12.0 mi Calm Calm - N/A   Clear
11:49 PM 69.8 °F - 57.2 °F 64% 29.94 in 12.0 mi Calm Calm - N/A   Clear